Location: Kumla
(59.1265°N, 15.1401°E)
Time: 19:16:38
(UTC+01:00)

A-11 Canister half - Pass Details

Date: 10 December 2023
Orbit: 1526 x 1682 km, 47.3° (Epoch: 21 February)

Event Time Altitude Azimuth Distance (km) Brightness Sun altitude
Rises 19:22:30 0° 239° (WSW) 4,927 12.4 -31.1°
Reaches altitude 10° 19:25:54 10° 233° (SW) 3,943 11.6 -31.5°
Maximum altitude 19:35:02 41° 168° (SSE) 2,292 9.6 -32.6°
Enters shadow 19:35:26 40° 163° (SSE) 2,295 9.6 -32.7°
